Hourly Data Report for October 25, 2014

All times are specified in Local Standard Time (LST). Add 1 hour to adjust for Daylight Saving Time where and when it is observed.

CAPE DORSET A
NUNAVUT

64°13'49.000" N
76°31'30.000" W
48.20 m
2400637
71366
YTE

Download Data

Hourly Data (October 2014)
Hourly Data Report for October 25, 2014
Temp Definition
°C
Dew Point Temp Definition
°C
Rel Hum Definition
%
Wind Dir Definition
10's deg

Wind Spd Definition
km/h
Visibility Definition
km
Stn Press Definition
kPa
Hmdx Definition


Wind Chill Definition


Weather Definition


TIME
00:00 Legend Double Dagger -6.1 -9.3 78 8 30 16.1 101.35   -14 LegendNANA
01:00 Legend Double Dagger -6.2 -9.7 76 9 37 16.1 101.29   -15 LegendNANA
02:00 Legend Double Dagger -6.5 -10.0 76 8 45 16.1 101.22   -17 LegendNANA
03:00 Legend Double Dagger -7.0 -10.2 78 8 45 16.1 101.20   -17 LegendNANA
04:00 Legend Double Dagger -7.1 -10.4 77 8 45 16.1 101.14   -17 LegendNANA
05:00 Legend Double Dagger -7.6 -10.4 81 7 48 16.1 101.08   -18 LegendNANA
06:00 Legend Double Dagger -7.8 -10.6 80 8 54 16.1 101.03   -19 LegendNANA
07:00 Legend Double Dagger -7.9 -10.3 83 8 48 16.1 101.00   -19 LegendNANA
08:00 Legend Double Dagger -7.9 -9.9 86 8 45 16.1 100.97   -18 LegendNANA
09:00 Legend Double Dagger -7.3 -9.0 88 7 41 16.1 100.95   -17 LegendNANA
10:00 Legend Double Dagger -7.2 -9.5 84 8 45 16.1 100.91   -18 LegendNANA
11:00 Legend Double Dagger -7.1 -9.1 86 7 41 16.1 100.91   -17 LegendNANA
12:00 Legend Double Dagger -7.2 -9.5 84 7 39 16.1 100.89   -17 LegendNANA
13:00 Legend Double Dagger -7.0 -9.6 82 7 39 16.1 100.85   -17 LegendNANA
14:00 Legend Double Dagger -8.4 -9.9 89 5 32 16.1 100.89   -18 LegendNANA
15:00 Legend Double Dagger -8.9 -10.5 89 5 32 16.1 100.86   -18 LegendNANA
16:00 Legend Double Dagger -9.3 -10.7 90 5 28 16.1 100.86   -18 LegendNANA
17:00 Legend Double Dagger -9.4 -11.0 88 5 32 16.1 100.85   -19 LegendNANA
18:00 Legend Double Dagger -9.3 -10.9 88 6 28 16.1 100.82   -18 LegendNANA
19:00 Legend Double Dagger -9.9 -11.4 89 5 32 16.1 100.83   -20 LegendNANA
20:00 Legend Double Dagger -9.7 -11.3 88 5 34 16.1 100.81   -20 LegendNANA
21:00 Legend Double Dagger -8.9 -10.7 87 5 32 16.1 100.77   -18 LegendNANA
22:00 Legend Double Dagger -8.0 -10.3 84 6 28 16.1 100.73   -17 LegendNANA
23:00 Legend Double Dagger -7.9 -10.1 84 5 28 16.1 100.72   -17 LegendNANA

Notes on Data Quality.

Legend

  • E = Estimated
  • M = Missing
  • NA = Not Available
  • ‡ = Partner data that is not subject to review by the National Climate Archives
Date modified: